Location: Ammerl�gen
(47.2167°N, 9.6000°E)
Time: 10:04:02
(UTC+00:00)

Ariane Rocket - Pass Details

Date: 21 April 2021
Orbit: 760 x 770 km, 98.7° (Epoch: 06 May)

Event Time Altitude Azimuth Distance (km) Brightness Sun altitude
Exits shadow 19:55:42 - 184° (S) 2,717 5.5 -15.2°
Reaches altitude 10° 19:56:49 10° 187° (S) 2,288 5.2 -15.4°
Maximum altitude 20:01:39 46° 261° (W) 1,019 3.9 -16.0°
Drops below altitude 10° 20:06:31 10° 334° (NNW) 2,302 6.5 -16.6°
Sets 20:08:55 0° 341° (NNW) 3,232 7.3 -16.9°
